Location: Ay?beleni
(36.6500°N, 30.3000°E)
Time: 11:37:15
(UTC+00:00)

Tiangong - Visible Passes

Search period start: 30 July 2021 00:00
Search period end: 09 August 2021 00:00
Orbit: 373 x 386 km, 41.5° (Epoch: 30 July)

Date Brightness Start Highest point End Pass type
(mag) Time Alt. Az. Time Alt. Az. Time Alt. Az.
06 Aug 2.6 02:11:29 13° SSW 02:13:41 26° SSE 02:16:23 10° E visible
07 Aug 3.6 01:13:04 13° SE 01:13:04 13° SE 01:14:14 10° ESE visible
08 Aug 1.6 01:46:41 35° SSW 01:47:30 46° SSE 01:50:32 10° ENE visible
